Theta_e
353 354 356 354 356 354 355 356 355 355 355 355 353 353 354 357 353 354 356 357 355 355 356 356 357 359 358 358 360 359 362 360 362 362 361 360 361 362 362 360 360 360 362 360 360 359 359 360 359 361 361 354 353 355 357 354 353 353 356 356 358 359 358 354 349 350 353 357 356 355 355 354 351 354 352 352 351 352 355 351 352 349 347 346 347
353 353 354 354 354 354 354 355 355 355 354 354 353 353 353 354 354 353 354 355 354 356 358 355 356 358 357 358 356 358 360 361 362 363 361 361 362 365 362 360 360 360 359 359 360 362 363 357 359 361 359 353 351 354 355 356 350 352 356 357 358 358 360 356 352 348 348 351 353 357 354 356 351 353 352 352 352 354 350 348 350 349 348 347 347
352 352 353 352 353 354 353 354 354 353 352 352 352 353 353 352 353 353 353 353 355 355 356 356 354 356 354 356 357 357 359 361 362 360 360 361 361 361 359 361 360 360 359 357 359 360 358 357 359 358 359 356 360 359 356 352 352 350 353 355 355 358 358 358 353 350 350 350 353 351 352 354 352 352 354 355 355 354 349 348 348 351 351 349 349
351 351 353 351 352 353 352 353 353 352 350 349 349 349 350 351 353 351 351 350 352 354 354 354 354 356 354 357 358 357 357 358 362 360 358 361 361 361 361 358 357 359 358 356 356 356 355 355 355 356 357 357 355 358 354 353 351 356 356 354 358 359 356 354 359 355 352 348 350 352 354 352 352 355 356 356 354 351 349 350 352 350 348 350 351
350 351 353 350 351 352 353 352 351 351 350 348 347 348 347 347 351 350 349 349 347 352 354 354 355 359 355 358 358 358 360 361 362 361 361 361 361 361 361 360 359 358 358 358 366 359 357 356 357 357 358 356 358 355 353 355 355 356 352 351 353 354 358 358 357 357 352 349 349 353 354 353 355 355 355 353 349 346 347 347 347 349 351 353 355
356 352 352 350 350 351 351 351 350 351 351 351 352 348 345 344 346 349 348 347 348 349 351 350 350 359 356 356 357 360 361 362 361 359 359 359 360 360 360 360 360 360 359 359 358 358 358 357 357 358 355 354 354 354 358 356 356 350 349 354 355 355 353 356 356 352 349 349 348 349 350 351 348 350 349 348 346 346 346 347 348 348 350 353 355
362 353 351 349 349 348 348 348 348 350 351 351 352 349 349 350 348 345 347 346 346 345 352 349 350 357 357 359 359 360 361 360 359 360 360 358 358 357 358 357 358 360 360 358 358 356 357 355 353 352 352 354 355 354 356 354 354 351 353 357 360 358 356 353 354 352 350 349 348 347 347 349 349 345 348 351 351 351 347 348 348 351 354 354 353
355 360 353 349 350 350 347 347 347 347 351 353 352 352 355 355 354 355 354 352 344 344 344 349 350 355 360 359 359 359 360 360 360 362 362 359 358 359 358 357 358 358 357 357 357 355 355 354 351 352 352 352 353 352 351 350 357 357 358 360 359 354 352 353 351 350 349 350 347 347 346 346 347 349 353 349 344 348 351 351 348 350 353 355 355
353 354 355 353 353 354 354 355 355 353 357 353 353 353 354 356 355 357 359 359 359 357 354 347 348 351 358 359 359 359 358 354 353 354 356 360 359 357 357 354 357 356 357 359 355 347 348 351 350 352 367 366 367 361 357 356 357 354 357 352 353 350 352 352 351 348 347 348 348 349 346 344 344 344 344 343 347 348 351 353 351 353 354 353 355
354 354 350 348 347 348 347 346 347 353 356 356 355 355 356 357 361 360 360 360 360 361 358 356 351 348 348 354 356 353 348 350 352 347 349 357 359 358 357 356 356 356 357 357 355 350 352 356 359 364 363 364 364 364 364 369 365 357 356 357 355 352 350 348 347 348 347 346 346 346 344 343 345 346 348 348 353 353 351 351 350 352 352 350 350
349 349 346 346 347 348 346 346 345 343 345 346 354 360 360 360 358 357 358 360 358 357 356 356 353 348 348 348 348 348 345 339 335 335 338 347 363 357 358 358 357 358 355 354 354 351 348 350 350 356 360 363 356 361 365 365 370 368 369 371 366 353 348 347 346 348 346 346 347 347 344 344 346 350 351 353 355 353 351 351 351 350 347 345 343
347 347 347 345 347 343 345 348 346 346 349 348 349 352 357 358 356 355 356 357 356 356 354 354 350 348 350 349 348 345 339 331 329 331 335 337 349 362 359 360 359 357 357 353 350 350 349 349 349 351 353 354 356 354 357 365 365 367 366 366 365 366 363 352 348 345 345 345 345 345 345 346 348 350 353 354 353 353 351 351 348 347 346 345 345
346 344 347 348 346 345 346 347 346 347 349 353 352 355 355 355 355 355 354 354 359 354 353 355 349 349 351 350 347 343 337 328 328 330 331 333 338 359 357 357 353 352 350 349 349 349 350 350 351 352 358 362 361 353 353 358 369 366 365 366 367 364 350 349 354 354 349 347 347 346 347 346 346 350 355 356 354 349 348 347 347 347 347 347 347
342 343 345 346 347 348 348 348 347 348 350 351 353 353 352 351 352 352 353 352 352 354 355 357 353 350 351 351 346 340 333 326 326 328 328 330 333 347 355 355 355 352 350 350 352 351 349 349 350 351 353 351 345 343 348 355 359 358 357 358 359 365 368 356 350 351 354 352 348 345 348 351 350 351 358 356 349 346 346 345 346 346 347 348 351
339 340 341 341 342 344 345 346 345 345 346 348 349 349 349 348 348 348 349 349 348 350 352 354 352 352 353 350 341 333 328 322 323 325 325 327 330 349 356 358 355 354 352 351 351 351 350 354 350 350 349 342 339 335 341 345 354 357 355 357 358 356 358 360 357 354 351 351 349 349 350 354 355 355 352 350 350 349 349 348 349 350 351 353 353
336 337 338 340 341 341 342 341 340 341 342 345 345 345 345 345 344 347 348 348 347 349 353 352 350 348 350 351 340 331 326 318 319 321 322 324 333 356 358 355 352 352 351 351 351 351 350 349 349 351 342 335 333 328 333 343 353 355 354 354 354 355 356 370 350 352 359 355 355 354 352 351 346 346 346 344 342 343 348 351 350 348 348 346 347
329 331 333 335 339 341 342 341 341 340 340 340 341 342 342 342 344 345 343 343 346 348 349 350 349 347 348 347 336 329 326 319 316 316 318 320 339 356 357 356 353 352 351 351 350 350 351 352 352 344 333 330 329 321 325 347 350 347 348 348 350 350 350 335 341 340 337 334 331 331 330 328 327 326 326 327 333 338 343 341 341 348 345 343 345
329 330 330 332 334 336 340 341 339 340 339 339 340 341 342 343 343 344 341 341 342 344 347 348 349 346 346 339 331 327 324 320 314 314 314 317 336 350 355 354 353 352 349 349 351 346 347 355 344 332 329 329 321 320 322 339 339 339 337 337 338 343 333 332 333 334 334 333 333 331 330 330 331 331 332 331 331 338 338 336 344 349 348 347 344
326 326 327 328 329 332 336 338 339 338 337 338 340 340 341 342 344 344 343 343 342 342 347 347 345 344 344 338 337 327 325 323 314 313 313 316 333 345 354 351 349 350 349 349 349 339 333 338 340 335 331 329 316 317 320 333 335 336 335 335 336 340 336 333 330 330 333 333 331 333 336 339 341 340 343 342 339 353 343 345 351 350 347 346 345
325 324 325 325 327 328 329 331 332 334 336 338 339 339 342 342 343 342 339 338 338 340 342 340 342 343 340 334 329 326 323 322 320 312 312 317 327 343 342 346 345 344 344 347 348 341 332 330 331 321 319 317 314 313 315 319 330 333 335 335 335 335 338 333 335 337 333 331 331 333 335 338 341 341 340 340 352 357 349 352 354 349 339 336 338
324 323 323 323 325 326 328 330 331 332 333 335 339 337 341 341 340 336 334 335 338 339 337 335 334 334 335 332 329 327 325 323 321 312 311 312 317 326 325 325 330 338 340 343 343 345 340 333 330 325 316 315 313 311 311 314 324 330 332 331 335 338 332 331 334 341 333 334 334 334 335 342 342 340 340 342 348 347 348 345 344 343 341 340 339
324 322 321 322 325 327 328 330 332 332 334 334 334 334 334 336 337 333 334 335 336 338 338 337 334 332 333 334 332 330 330 328 326 317 312 311 312 318 326 326 326 331 338 340 343 344 346 335 335 330 316 314 313 309 308 311 316 328 329 323 323 322 328 335 336 335 334 334 333 334 337 342 339 338 342 342 344 347 345 344 344 344 346 348 346
323 323 325 326 328 328 326 326 327 327 333 335 332 330 333 333 332 336 333 332 334 336 338 336 333 332 331 331 330 330 330 330 329 328 317 312 311 313 316 323 321 330 328 330 333 328 332 335 336 329 315 309 307 307 308 309 317 318 313 313 315 319 329 331 333 333 331 331 332 332 336 338 337 337 341 339 343 345 345 346 345 346 346 347 348
325 327 327 328 327 325 323 324 327 325 327 329 330 326 327 329 328 327 330 334 334 335 334 337 335 332 330 327 326 328 329 327 329 330 326 317 314 313 314 315 317 328 328 323 323 323 320 320 323 312 306 303 304 306 309 313 320 312 311 313 317 325 325 325 325 327 331 330 332 334 337 336 337 337 338 340 344 344 345 345 345 347 343 343 342
326 324 321 323 327 327 324 324 325 321 320 322 320 323 320 323 321 325 328 326 326 327 331 336 335 333 330 326 324 325 328 331 328 327 328 327 318 315 316 318 318 318 326 322 323 320 316 310 309 309 310 308 308 309 311 315 311 309 310 311 327 324 324 324 327 330 330 331 333 336 337 337 337 339 338 339 343 341 341 345 347 343 343 342 341
325 324 323 324 325 326 325 324 326 326 328 328 327 324 324 325 323 324 325 325 328 330 331 330 329 330 332 330 330 328 325 323 320 320 322 323 322 320 318 320 326 324 324 321 317 315 312 312 312 313 316 318 325 324 325 326 327 327 322 324 325 324 326 328 330 330 329 329 331 335 333 334 339 337 339 341 337 335 338 340 337 337 336 334 331
323 322 321 323 321 321 319 325 320 323 323 322 325 325 324 322 323 322 319 318 321 326 327 327 327 328 328 327 324 323 318 316 316 316 314 315 315 317 316 316 320 318 316 314 313 314 317 319 317 314 315 317 319 320 321 325 326 327 326 328 327 325 326 328 330 331 332 334 335 333 338 341 339 341 339 335 334 335 338 339 333 332 333 331 330
322 321 322 322 324 322 322 327 323 316 317 315 314 317 320 318 315 315 314 314 315 319 321 321 321 322 323 324 323 319 317 314 311 310 310 310 310 311 313 313 310 310 311 309 309 312 314 317 318 325 329 330 331 331 331 332 331 330 329 329 329 332 336 340 345 335 333 333 336 340 339 335 333 333 334 333 332 333 338 336 332 330 332 331 327
324 323 322 318 316 321 320 318 319 317 311 311 311 312 315 319 313 313 316 316 316 316 316 317 320 319 318 320 322 319 318 314 312 307 313 306 308 308 309 308 307 307 311 305 310 312 313 316 319 321 322 324 325 326 324 326 332 334 336 332 329 328 332 332 332 332 334 332 331 331 330 329 329 331 332 331 331 332 336 330 331 329 327 326 324
321 314 314 314 320 322 321 319 320 321 316 311 311 312 312 305 310 315 312 313 308 306 310 314 318 318 313 313 316 319 316 314 305 299 298 297 297 298 299 296 295 301 302 303 310 310 312 312 316 319 322 322 319 322 324 324 325 325 326 326 327 329 330 331 330 331 331 330 330 329 329 328 328 329 328 328 329 330 329 327 326 327 324 323 323
323 315 315 315 320 322 321 319 318 318 318 319 318 314 310 310 299 304 312 311 301 294 294 297 304 313 318 312 310 307 307 301 299 299 299 297 296 295 294 294 294 294 297 305 305 307 309 312 316 320 322 321 323 323 323 324 324 324 325 325 327 328 328 327 329 330 329 328 328 328 328 327 326 326 327 328 327 326 326 326 327 326 324 324 323
325 316 316 317 319 321 317 317 323 321 317 320 320 319 316 312 310 300 298 301 298 294 293 293 295 302 307 311 313 308 304 298 296 296 296 295 295 294 294 294 294 295 296 300 307 306 309 312 317 319 321 323 324 325 324 323 323 324 325 327 327 327 327 326 326 326 324 324 324 325 325 324 324 324 325 325 325 324 324 324 324 324 324 323 324
318 317 319 318 320 321 323 319 318 320 320 320 321 322 318 318 314 312 309 298 296 295 294 292 291 292 294 298 304 304 302 300 296 294 294 294 294 294 294 295 296 295 298 304 305 307 310 315 317 320 321 321 321 322 324 325 325 325 325 325 324 325 326 326 322 323 323 322 322 322 323 323 322 322 322 323 322 321 322 321 322 322 322 322 322
316 317 317 318 316 316 317 319 321 320 319 319 320 316 319 322 318 317 313 312 311 304 297 295 293 295 294 293 295 297 297 296 293 292 292 294 295 295 294 299 297 296 300 306 310 311 313 316 321 322 322 324 323 323 323 323 324 323 322 321 321 323 323 323 321 321 321 321 321 322 322 322 322 321 321 321 321 321 320 320 319 318 317 317 317
314 319 323 323 317 318 319 318 317 319 320 319 317 319 320 319 320 319 318 315 314 313 312 311 298 295 305 301 296 290 290 292 293 293 294 295 296 294 297 308 315 308 303 304 307 308 311 318 320 320 320 319 320 321 320 320 321 320 319 319 319 320 320 319 319 319 319 320 319 319 320 320 320 319 318 317 317 317 317 316 315 315 315 315 315
313 311 314 319 320 319 317 314 316 315 313 313 315 315 318 319 320 319 318 324 320 318 314 311 311 306 300 297 298 295 293 292 293 294 295 295 294 297 308 311 316 318 316 312 310 314 322 319 318 317 317 317 317 317 318 318 318 318 317 317 318 319 317 319 318 317 318 317 317 317 316 317 317 317 317 316 316 316 316 315 314 314 315 314 315
314 312 312 315 317 318 317 318 316 314 316 318 313 312 317 318 319 319 319 318 321 320 315 315 313 310 308 313 314 302 295 294 295 295 295 295 295 306 308 309 315 318 318 317 318 319 317 316 316 315 316 315 315 315 315 315 315 315 318 316 317 316 316 318 317 318 315 315 313 313 312 311 311 312 313 312 312 312 313 314 313 313 313 315 315
319 316 315 316 316 314 314 316 317 317 315 313 315 316 317 317 316 318 316 318 315 316 314 315 318 309 308 310 319 319 316 302 296 300 303 304 304 307 309 318 320 316 316 317 318 316 314 314 314 314 314 314 314 313 313 312 312 312 313 312 313 313 317 314 315 312 312 310 309 309 309 308 308 309 309 308 307 307 307 309 308 307 308 310 310
314 319 321 322 321 315 315 319 318 314 315 317 315 317 319 314 314 314 313 315 315 316 320 316 315 314 313 315 315 318 315 310 310 309 311 311 314 314 315 315 314 315 316 313 314 313 312 312 313 314 314 313 313 311 311 311 311 311 310 310 310 310 310 309 308 308 308 307 307 307 307 307 307 307 308 307 306 306 305 305 305 305 304 304 305
313 311 315 318 312 311 313 316 318 317 320 317 316 319 321 315 318 317 315 314 314 315 314 314 313 311 311 311 311 310 310 311 311 310 310 311 312 313 313 312 312 312 312 312 311 311 311 310 311 311 311 310 310 310 310 309 309 310 309 309 308 308 307 306 305 305 305 306 305 305 305 305 305 305 305 305 305 305 304 304 304 304 303 303 303
315 312 316 314 314 310 313 316 315 315 315 315 318 315 315 318 316 320 313 311 313 314 315 310 307 306 306 305 305 306 309 310 309 311 310 311 313 313 311 311 310 309 309 309 309 309 309 309 309 309 309 309 309 309 308 308 308 307 308 308 307 307 305 304 304 303 304 304 304 303 302 302 303 302 302 303 306 304 303 303 303 303 303 303 303
316 313 312 310 313 314 314 317 315 317 317 316 313 313 318 319 314 313 317 319 316 315 312 310 307 306 302 301 299 297 307 310 310 310 311 309 308 309 310 309 308 308 308 307 307 307 308 308 308 307 307 308 308 308 307 306 306 305 305 305 303 303 302 301 302 302 302 302 302 301 300 302 303 303 303 305 302 302 302 302 302 302 302 302 302
319 315 311 312 311 312 314 314 316 313 312 312 312 319 316 314 311 311 314 317 314 313 312 310 308 308 306 302 303 301 307 309 315 308 308 308 308 308 306 306 306 306 305 305 305 305 305 305 305 306 307 307 307 306 305 304 304 304 304 302 301 300 300 300 300 301 300 300 299 300 300 301 301 301 301 302 301 301 300 301 301 301 300 299 299
319 318 317 315 313 313 314 312 315 314 311 315 316 314 317 314 315 313 310 311 311 312 311 311 310 308 307 305 303 307 307 306 305 305 307 308 306 305 304 304 305 304 304 304 303 304 304 304 304 304 305 305 305 306 305 305 304 302 301 300 301 300 299 299 299 299 298 297 298 298 298 299 300 298 299 300 299 299 299 299 299 299 299 298 298
316 317 317 316 315 313 313 316 315 313 316 314 310 309 314 309 308 308 310 310 314 309 309 309 309 308 309 308 306 306 305 305 308 307 304 304 303 303 303 303 303 302 302 303 302 303 302 303 303 303 304 304 305 305 305 303 300 299 299 298 297 297 296 297 298 297 297 297 296 296 297 297 295 295 296 297 299 298 298 297 297 298 297 297 297
313 314 316 316 316 316 316 314 317 312 310 308 308 308 308 308 308 311 311 310 309 307 306 306 306 307 307 305 306 306 303 302 302 304 304 303 302 302 302 302 302 301 301 300 301 301 302 302 301 302 302 302 303 303 303 301 299 298 298 298 297 297 297 299 297 296 295 296 294 294 295 295 295 296 298 297 296 296 296 296 297 297 297 296 297
314 315 315 313 312 313 314 314 311 309 309 308 308 309 307 305 306 312 311 308 307 308 304 303 303 303 303 304 303 303 303 302 301 301 301 302 301 301 301 301 301 300 300 300 301 300 301 301 301 302 303 303 302 302 301 300 298 297 297 296 296 296 297 297 295 295 294 295 295 293 293 294 294 295 295 296 296 295 296 296 296 296 296 297 297
314 314 313 313 313 311 312 313 312 315 309 310 308 307 307 307 306 307 305 306 304 305 304 304 302 303 304 302 303 302 302 301 302 302 300 300 299 299 300 300 300 299 300 299 300 301 301 301 301 302 302 303 303 302 300 298 296 295 295 295 295 295 296 296 294 293 292 293 293 293 293 292 293 293 294 295 294 295 295 295 296 296 297 298 298
312 312 313 313 313 314 314 314 314 310 310 308 307 306 306 304 304 303 304 304 303 303 301 301 300 300 300 301 301 301 302 302 299 298 298 298 299 299 299 300 301 300 300 299 299 299 300 301 303 301 301 301 300 300 299 298 296 295 294 293 294 295 293 294 293 292 293 293 292 292 292 292 292 294 295 295 295 295 295 295 296 297 298 299 299
311 312 312 313 312 310 310 308 306 305 305 304 303 302 304 305 305 306 305 304 302 301 300 300 300 299 299 300 301 300 299 298 297 297 297 298 298 300 300 300 300 299 299 298 298 299 299 300 300 300 300 300 300 300 298 297 296 295 293 292 292 290 290 293 294 294 292 290 291 291 292 292 292 293 293 294 294 295 295 296 298 298 298 298 298
312 310 310 309 308 308 308 308 306 304 304 303 302 300 301 300 301 301 302 302 302 300 300 298 299 299 298 298 300 298 298 297 298 298 298 298 299 300 300 299 299 299 299 298 298 298 299 298 298 299 299 300 299 299 299 297 297 294 292 291 290 289 289 290 290 289 291 291 290 291 292 293 293 293 294 295 295 295 297 297 297 297 297 298 298
Wind_Speed
9 7 8 6 7 9 9 8 8 7 7 6 6 5 4 3 5 6 6 6 6 6 5 5 5 4 5 5 6 5 5 4 4 4 4 3 3 3 2 3 2 3 3 5 4 3 3 2 3 2 1 3 4 3 1 3 1 1 3 3 2 2 3 3 4 6 5 3 4 3 5 3 4 3 6 6 7 7 6 4 5 5 5 5 5
10 8 7 6 7 9 7 7 8 6 8 7 6 6 5 4 4 3 6 6 7 6 6 6 5 6 5 4 5 6 5 4 4 4 4 4 3 4 5 4 4 4 3 4 5 4 2 3 3 3 3 4 3 3 4 2 3 3 4 5 5 4 3 4 5 3 5 4 5 5 4 3 5 5 5 7 8 7 7 6 6 5 5 5 6
10 9 8 8 6 9 7 6 6 6 5 7 8 7 7 6 6 5 8 7 6 7 7 7 6 7 6 5 6 5 4 4 4 4 5 4 4 4 3 5 5 5 4 4 4 3 4 3 4 4 4 2 0 2 1 2 2 3 3 0 3 4 4 4 3 3 5 5 4 4 3 3 4 6 7 6 6 6 6 6 6 6 5 6 6
10 10 8 9 7 7 7 6 8 6 6 4 6 6 6 7 7 6 6 6 8 7 8 7 4 6 6 5 5 5 5 5 5 5 5 5 5 5 4 3 4 5 5 4 5 5 5 5 6 5 3 3 2 3 3 5 5 1 1 2 1 3 3 4 4 5 3 4 4 3 4 4 5 6 6 6 7 7 4 6 6 6 7 8 7
11 9 9 10 8 8 7 6 7 6 6 6 7 7 6 6 6 6 5 4 4 6 6 6 5 5 6 5 6 5 5 5 4 4 4 5 5 5 4 4 4 5 5 4 5 4 4 3 4 6 3 3 3 4 5 6 5 3 4 2 5 5 5 4 4 3 4 6 5 3 3 3 3 6 5 4 6 6 6 5 6 6 6 6 5
7 9 9 10 8 9 8 7 6 6 5 4 4 5 6 7 6 7 6 6 5 6 8 7 6 5 5 5 4 5 5 5 5 5 5 5 5 4 4 4 5 5 5 5 5 5 4 4 5 5 4 4 5 4 3 3 2 2 3 5 6 5 2 2 3 3 3 4 4 4 3 4 4 4 7 6 6 6 7 6 5 5 6 7 6
3 7 7 9 8 8 7 6 6 6 6 5 5 4 1 1 2 1 2 7 7 4 8 7 5 6 7 6 5 4 6 5 4 4 4 4 5 5 4 4 3 3 2 3 3 3 3 2 6 9 5 4 6 5 4 3 4 5 3 3 1 1 1 2 2 2 3 3 3 3 4 4 3 5 6 7 5 2 3 7 8 6 5 6 7
2 2 5 6 6 7 6 5 6 6 5 5 5 4 0 1 2 1 4 3 3 4 5 8 7 6 6 7 7 5 5 4 2 2 3 4 3 5 5 4 3 2 2 3 4 2 8 8 4 1 6 10 7 5 4 5 5 3 4 3 2 1 0 2 2 3 3 4 3 5 3 3 6 3 3 4 5 6 6 4 7 8 9 7 5
1 1 0 2 3 3 2 2 2 4 4 4 4 4 2 0 0 3 3 3 5 6 6 2 4 6 7 8 7 7 4 6 4 2 6 5 4 4 5 4 4 3 2 2 5 12 4 2 4 1 1 3 3 2 7 12 6 4 3 2 2 2 1 0 1 2 4 3 5 4 4 5 4 4 6 4 4 4 4 4 4 5 7 9 9
3 4 9 13 15 14 14 13 14 10 5 1 1 2 3 2 3 4 2 3 3 3 3 3 4 5 4 2 2 5 4 3 4 3 3 4 5 5 4 4 3 3 2 2 6 9 6 1 2 4 2 2 4 4 6 7 3 3 4 3 2 2 1 1 1 2 2 3 4 4 5 5 5 4 3 2 2 3 5 5 6 7 7 8 7
7 8 7 4 3 2 3 3 2 1 3 7 8 7 4 3 3 2 2 2 3 3 3 4 5 5 5 6 8 5 3 2 6 6 5 5 2 4 5 4 4 3 3 1 5 7 3 2 3 3 1 2 1 4 6 8 9 4 5 5 5 3 2 2 3 3 2 3 3 3 3 5 5 4 4 4 3 3 3 3 5 5 5 7 11
8 7 2 2 2 6 3 2 1 3 1 3 1 1 2 2 2 2 2 3 2 3 4 4 5 4 5 6 6 5 4 3 5 7 6 5 3 0 2 4 4 4 2 5 4 5 6 5 3 2 0 1 1 2 4 7 10 7 4 1 0 2 3 3 3 3 3 3 4 5 3 5 5 5 5 4 5 4 3 3 3 4 6 6 6
7 6 4 1 2 4 7 6 3 2 4 3 5 4 2 1 1 0 0 0 1 1 2 3 4 4 5 6 6 5 4 2 5 6 5 7 6 3 4 3 3 5 6 5 4 4 3 2 1 2 2 0 2 1 3 5 4 4 4 2 4 6 7 8 7 6 3 3 4 4 4 3 4 4 3 3 3 5 4 5 4 4 4 6 6
8 5 3 0 2 1 3 5 5 3 1 0 0 1 2 1 0 1 1 1 2 3 2 2 3 4 5 7 7 5 3 2 2 6 5 5 7 3 2 3 6 6 4 3 3 2 1 2 1 0 1 3 4 5 4 5 2 1 1 2 3 5 7 9 10 7 5 4 3 3 4 2 4 4 5 3 4 5 5 6 4 4 5 6 7
6 5 5 3 3 3 3 3 2 1 0 0 1 1 1 0 1 1 1 0 1 2 2 4 4 5 5 5 5 4 3 2 2 3 6 4 5 5 1 4 5 5 4 3 2 2 2 3 2 2 3 3 4 5 4 5 4 4 3 3 3 3 3 3 2 4 3 4 5 6 6 5 5 6 5 5 4 5 4 6 5 4 5 5 6
7 6 6 4 3 2 3 4 4 3 3 3 3 3 3 2 1 1 0 0 1 2 3 2 4 6 7 6 5 4 2 5 3 3 4 5 4 2 3 5 5 5 4 3 2 0 1 1 2 4 4 2 5 8 6 4 4 2 3 3 3 3 3 3 4 4 2 0 1 2 4 6 7 8 8 7 6 5 4 4 3 3 3 4 5
6 6 6 5 4 3 3 4 4 4 4 4 4 3 2 1 1 1 1 1 1 2 3 1 0 2 4 4 7 5 3 6 7 6 4 4 3 1 3 4 5 5 4 3 3 2 1 2 3 5 4 3 3 6 8 6 2 3 3 3 3 3 4 6 5 4 4 5 7 9 10 11 12 13 13 13 9 5 2 3 6 2 3 4 4
5 5 6 6 6 5 4 4 5 4 4 3 2 1 0 0 0 0 1 0 1 2 2 2 1 4 4 5 5 6 3 4 7 8 7 5 1 0 2 4 4 5 4 3 3 3 4 9 7 5 4 1 4 6 8 4 3 3 3 3 3 2 3 5 4 3 3 4 6 8 10 12 12 13 13 13 16 4 4 5 3 3 5 5 5
6 6 6 6 6 6 6 6 5 4 3 2 1 0 0 0 1 1 2 2 2 2 1 2 2 4 6 7 9 7 5 4 8 8 8 6 3 2 4 4 4 3 4 4 4 5 3 6 8 5 4 2 2 4 5 4 1 2 2 2 2 1 1 3 4 6 6 7 8 8 7 10 7 6 7 11 12 4 5 2 1 3 3 5 5
4 5 5 6 6 7 6 6 6 5 4 3 3 3 2 1 2 3 3 2 2 3 5 6 4 3 6 8 7 6 6 5 7 10 9 10 8 7 5 5 4 2 2 3 4 4 3 3 3 4 4 3 1 0 2 3 1 1 2 1 1 3 2 4 3 4 4 4 6 5 6 6 6 4 6 5 5 5 2 1 1 1 2 5 5
3 3 4 5 6 6 5 5 5 5 5 3 2 2 2 2 3 3 2 2 4 6 7 7 9 9 7 4 6 7 6 6 5 7 9 11 12 9 7 6 3 2 1 1 1 2 3 2 2 1 1 1 1 2 2 2 2 1 2 2 2 1 3 4 5 7 4 4 4 5 6 5 4 5 5 4 5 3 3 2 2 2 3 5 5
2 3 4 3 3 3 3 3 3 4 4 5 5 4 4 3 2 2 1 2 5 7 6 8 8 6 7 5 3 6 7 10 5 6 7 12 13 12 7 5 2 0 2 0 0 1 3 4 2 1 2 3 5 5 6 5 4 2 4 7 6 5 4 3 4 4 4 4 5 5 5 5 5 5 5 5 4 3 3 4 5 6 5 3 4
4 3 2 2 1 2 2 3 3 3 4 5 6 6 5 5 5 3 2 3 5 5 7 7 7 7 6 4 4 5 4 5 6 5 8 13 12 12 12 9 10 5 5 7 6 6 5 3 1 2 4 7 8 8 8 9 5 6 10 9 9 6 5 4 3 4 5 5 5 5 6 5 4 2 3 4 5 4 4 4 4 3 3 4 5
3 3 2 1 0 1 1 1 3 4 4 4 4 5 5 4 5 5 5 5 5 4 4 5 6 6 6 5 5 4 4 3 4 6 7 13 14 14 14 15 15 8 8 6 5 5 5 5 5 9 9 9 9 10 10 8 7 11 10 9 8 6 3 3 3 4 4 5 5 5 6 4 1 0 3 3 3 3 4 3 2 3 3 4 3
3 3 3 3 2 2 1 1 3 4 4 3 4 4 5 5 6 6 6 6 6 6 6 4 3 5 6 6 4 3 3 3 5 9 14 13 13 13 12 13 14 13 6 5 5 4 6 9 9 9 9 11 11 10 9 9 11 10 10 9 6 2 2 3 4 3 5 5 6 6 5 2 1 1 2 1 3 3 3 4 3 3 3 2 2
3 2 2 1 1 2 2 2 1 2 1 1 2 3 3 3 4 6 6 6 6 6 5 5 6 5 4 5 4 5 6 6 5 6 7 9 9 12 11 11 12 10 8 5 8 8 8 9 10 9 8 7 5 4 4 5 6 7 7 6 3 5 5 5 3 4 5 5 5 6 4 2 2 2 3 3 4 5 4 2 3 4 4 4 6
2 1 1 0 0 2 2 1 3 2 1 2 3 4 4 5 5 6 5 6 7 6 6 6 6 6 6 7 5 5 5 4 5 6 6 6 6 6 8 8 11 9 6 6 8 9 12 10 9 11 10 12 11 9 8 7 5 5 4 3 4 5 5 6 4 3 3 4 4 4 2 2 3 4 3 3 3 5 2 0 2 3 4 5 5
2 2 2 1 1 1 1 8 8 5 5 5 5 6 6 5 6 5 5 5 5 5 5 5 5 4 4 4 4 4 5 4 4 4 4 4 4 5 5 5 6 6 7 7 7 7 6 8 9 6 5 6 5 4 5 4 4 4 3 2 4 3 3 3 2 2 3 3 2 2 4 4 4 4 4 5 3 5 1 2 3 5 4 4 5
0 1 1 0 2 2 6 4 5 5 4 5 5 5 4 4 6 4 4 3 2 4 5 4 3 3 4 1 2 3 1 3 1 1 1 1 4 5 6 6 5 5 5 7 7 6 6 7 6 7 6 5 5 6 6 7 7 4 3 5 7 7 7 6 6 5 4 4 5 5 4 4 5 5 5 6 6 7 5 6 4 5 4 3 4
3 5 4 4 4 4 4 4 4 4 5 4 5 5 7 8 5 3 2 5 8 6 3 3 2 3 5 3 1 1 3 3 5 3 2 3 4 3 3 4 4 4 7 11 4 4 5 6 5 5 6 6 5 5 5 5 5 5 5 5 5 5 6 6 6 5 6 6 6 6 7 6 7 8 7 7 7 6 6 6 5 4 5 6 6
2 5 4 3 3 3 3 3 2 3 3 4 4 5 4 7 12 11 7 5 5 6 8 6 5 3 4 4 4 8 8 6 3 0 2 4 4 6 7 6 7 5 7 8 4 3 4 5 6 6 6 5 5 5 5 5 5 5 5 5 5 6 6 7 7 6 7 7 7 7 6 7 6 6 6 5 6 6 6 6 5 6 5 6 6
1 4 4 2 1 2 3 2 1 2 1 1 2 5 4 5 4 5 6 5 5 6 6 7 7 7 7 6 4 2 3 2 3 3 5 5 6 6 6 7 6 5 4 2 3 5 4 4 6 6 5 4 5 4 5 5 6 6 6 6 6 6 7 7 6 7 7 7 6 6 6 5 5 5 5 5 4 5 5 6 6 6 6 6 6
2 3 3 2 2 1 3 2 1 3 2 3 2 1 1 4 4 2 2 2 4 4 4 5 6 6 6 4 1 4 5 5 6 6 5 5 5 7 9 9 6 2 2 2 2 5 5 5 5 5 3 5 5 6 6 7 7 7 7 7 7 6 7 6 6 7 7 6 6 6 6 6 6 6 5 5 5 5 5 6 6 6 7 8 8
3 3 4 3 3 3 3 4 2 2 2 1 0 2 1 4 5 4 4 2 1 1 1 3 4 3 4 2 3 2 1 1 3 4 6 7 8 9 8 8 10 2 3 2 2 3 5 5 5 4 6 7 7 7 7 7 7 7 7 6 6 6 6 6 8 8 8 8 8 8 8 8 8 8 8 8 7 7 8 8 8 8 7 7 6
2 2 5 4 2 1 1 3 3 3 4 3 3 2 2 2 0 2 5 3 4 4 3 2 1 1 1 2 3 1 2 4 5 6 7 7 7 8 7 6 5 2 2 1 2 3 4 5 4 7 7 7 7 7 7 7 7 7 6 6 6 7 7 8 8 7 8 8 8 8 7 8 7 7 6 6 7 7 6 7 7 6 6 6 6
3 2 1 2 0 1 4 2 3 4 2 2 2 2 2 2 0 2 2 0 2 5 3 4 3 4 3 5 6 4 5 6 6 7 8 7 4 5 5 6 6 4 1 1 3 3 0 3 7 7 7 7 7 7 7 6 6 6 6 6 6 6 6 6 7 6 6 6 6 7 8 9 9 9 7 6 7 7 7 7 6 6 6 6 6
4 3 4 3 2 4 3 2 2 1 1 0 0 2 3 2 1 2 2 2 4 4 5 4 5 3 2 3 4 4 6 7 8 9 10 7 3 1 2 3 4 3 5 4 3 4 6 6 6 7 7 7 7 7 7 8 8 9 9 9 8 9 8 8 8 7 8 9 10 10 10 10 9 10 10 10 10 9 9 9 8 9 8 10 9
2 5 5 3 3 3 2 2 2 2 1 1 2 2 3 1 0 0 0 1 0 1 6 6 5 6 4 3 4 3 1 5 4 3 3 4 3 1 3 3 2 4 3 4 6 7 7 6 6 7 6 7 7 7 7 7 7 7 7 7 7 7 10 9 11 10 10 9 8 8 8 8 8 8 8 8 8 8 9 10 10 10 10 12 10
2 4 8 8 5 4 3 3 3 3 3 3 3 3 2 1 1 1 1 1 1 1 2 6 6 5 4 2 0 2 2 4 4 2 2 3 4 4 5 6 6 6 7 7 7 6 6 6 6 6 7 7 6 6 6 6 6 6 6 6 7 6 8 8 9 8 8 7 7 7 7 7 7 7 7 7 8 8 8 8 8 8 9 9 8
4 3 5 8 4 3 1 2 3 5 4 4 5 4 1 1 1 1 1 2 2 2 6 6 5 5 4 3 2 1 2 2 1 0 1 3 3 4 3 5 7 7 7 7 6 6 6 6 6 6 6 6 6 6 6 6 6 5 5 6 5 7 8 7 7 7 7 6 6 7 7 7 7 7 6 7 7 7 8 8 8 8 7 8 8
5 5 4 5 5 3 3 3 2 3 2 2 1 1 1 2 2 1 1 0 0 2 7 6 6 4 3 3 5 3 2 2 1 2 1 2 4 5 6 7 7 6 6 6 6 6 6 6 7 6 6 6 6 6 5 6 5 5 5 5 7 7 6 7 6 6 6 6 7 7 7 7 7 7 7 6 7 6 6 6 7 7 7 6 7
6 6 5 4 3 4 4 4 4 4 3 2 2 2 1 1 1 2 1 1 1 3 6 5 5 3 2 1 3 6 3 2 2 2 4 5 5 6 7 6 6 7 7 7 7 6 6 6 6 6 6 6 6 6 5 6 5 5 5 7 6 6 6 6 5 6 6 6 6 6 6 6 6 6 6 7 6 6 6 6 6 6 5 5 6
1 5 6 4 4 4 4 5 4 4 3 3 1 1 1 2 2 1 1 2 2 3 5 5 4 2 1 4 1 4 2 3 5 4 4 4 7 7 7 7 7 7 7 6 6 6 6 6 6 6 5 5 5 5 5 5 5 6 7 6 6 6 6 5 6 6 6 6 6 6 6 6 6 6 6 6 6 7 6 6 6 5 4 5 5
3 1 1 3 5 5 5 4 5 5 5 4 4 3 2 1 1 1 1 3 3 3 3 5 5 3 2 0 2 2 5 6 6 6 5 6 7 6 5 6 6 6 6 6 5 6 6 6 6 6 5 5 5 5 6 7 8 7 6 6 6 7 6 5 6 6 6 5 5 5 5 5 5 5 6 6 6 6 7 7 7 7 7 7 7
3 5 3 1 2 4 6 5 4 5 4 3 4 3 2 1 1 0 2 3 3 4 6 5 5 5 3 3 3 4 5 6 4 4 6 6 6 6 6 6 7 6 6 6 6 5 6 6 6 6 5 6 6 6 7 8 7 7 6 6 6 5 4 4 5 5 4 4 4 4 4 5 5 5 6 5 6 6 6 6 7 8 8 7 7
3 2 2 5 4 6 6 5 3 4 5 6 4 4 4 4 2 1 3 5 6 6 6 6 6 5 4 4 4 5 5 5 6 6 5 6 6 6 6 6 6 6 5 5 4 4 5 5 4 4 4 4 5 5 5 7 7 6 5 5 4 3 3 4 5 4 4 4 4 4 5 5 5 5 8 7 6 6 6 6 6 6 6 7 7
1 1 5 4 5 7 6 6 5 4 5 5 4 3 4 6 5 5 6 6 5 4 4 5 6 5 4 4 5 5 5 6 6 6 5 5 4 5 5 6 5 5 5 3 3 4 3 4 3 3 3 3 5 5 4 6 5 5 4 4 4 3 3 4 4 3 3 3 4 4 4 5 5 5 7 7 6 6 7 7 7 7 6 7 6
4 5 2 3 7 8 8 6 3 5 6 5 5 5 5 5 6 5 6 6 6 5 4 5 5 5 5 6 5 5 5 6 6 6 6 6 5 5 4 4 4 4 3 3 3 3 4 3 3 3 3 4 3 3 4 7 5 5 4 4 3 3 4 3 1 1 2 3 3 4 5 5 5 6 6 6 6 6 6 6 6 6 6 7 7
4 4 5 4 0 3 3 5 2 5 3 6 6 5 4 5 4 4 6 6 7 6 6 6 6 6 5 5 4 4 4 5 6 5 6 6 4 3 3 3 3 3 4 5 5 4 4 3 3 3 4 3 3 3 5 6 4 4 4 3 4 5 2 1 1 1 3 3 3 4 4 5 6 6 6 6 6 6 6 6 6 6 7 7 8
3 2 1 1 5 4 6 6 6 5 4 5 6 7 6 3 2 1 4 6 6 6 6 6 6 4 3 3 3 5 6 6 5 5 4 3 3 3 3 3 4 5 5 4 4 4 4 5 5 5 5 5 4 5 5 4 4 4 4 3 3 2 1 3 3 4 4 4 4 4 5 6 6 6 5 6 6 6 6 6 6 7 7 7 8
5 4 3 5 5 5 5 5 4 6 6 6 6 6 6 5 5 5 6 5 3 3 4 6 7 7 7 7 6 5 4 4 4 3 1 2 3 3 3 3 3 3 3 3 4 4 4 4 4 4 4 4 4 3 4 4 3 4 5 5 3 2 2 4 4 6 6 6 4 5 4 5 6 6 6 5 5 5 7 8 8 7 7 7 7
Wind_Direction
170 173 177 191 171 180 179 182 191 193 187 173 177 177 193 193 184 178 168 178 179 175 184 187 186 199 193 186 186 189 189 188 188 189 200 198 201 207 195 189 222 256 260 282 288 283 268 299 292 279 335 328 314 311 162 196 149 230 245 242 232 200 179 203 227 271 295 260 255 271 292 317 316 314 320 317 320 321 314 308 310 312 302 302 315
165 173 176 191 176 179 180 179 188 183 181 183 175 178 186 198 213 188 182 178 176 180 188 194 194 195 203 189 179 183 182 187 191 184 193 191 215 206 184 197 207 233 249 255 262 268 217 236 263 278 271 264 267 319 46 253 216 243 237 214 214 223 204 196 231 239 281 315 317 299 304 319 316 304 311 313 306 311 309 307 312 303 290 295 306
168 172 172 185 171 178 174 178 184 195 185 174 190 181 186 198 210 196 181 188 188 184 190 199 195 189 189 185 173 181 182 189 191 186 191 195 207 224 204 188 201 216 232 236 234 248 266 247 237 237 245 243 301 269 154 299 280 231 230 297 255 237 225 210 192 252 274 281 271 299 288 305 291 291 302 296 290 287 295 303 304 305 298 299 300
172 172 169 181 176 170 178 178 188 191 199 196 186 187 190 196 195 194 178 177 190 189 187 199 186 182 188 180 179 182 190 189 186 187 199 198 203 209 223 206 203 214 216 227 231 229 234 240 240 235 233 205 222 162 179 224 245 262 51 291 294 272 242 214 207 214 238 276 294 272 276 293 292 292 291 296 295 298 295 298 302 301 313 318 313
171 170 169 178 178 174 177 181 186 194 194 196 197 197 205 186 174 181 184 201 189 171 184 182 187 180 195 168 176 189 185 191 189 200 199 194 200 210 218 219 222 221 226 227 229 213 232 224 255 263 228 240 227 216 202 178 203 165 164 253 255 217 224 211 229 229 244 269 283 284 295 294 280 289 286 298 318 319 315 318 314 322 325 324 336
163 166 162 166 173 170 175 177 188 194 207 210 216 206 196 192 181 187 188 197 207 182 182 185 180 173 181 185 177 187 175 177 194 203 208 199 194 200 206 216 214 219 228 229 231 235 220 230 221 216 237 223 236 239 196 194 192 184 201 215 220 223 210 262 255 273 291 284 273 300 328 315 324 305 305 325 318 317 327 328 340 344 348 347 340
132 169 163 161 167 174 173 181 181 184 196 214 218 213 204 62 53 46 226 199 195 197 181 187 190 178 186 178 177 180 194 199 197 204 212 196 195 205 210 218 237 241 233 238 253 234 239 291 3 339 299 238 222 220 236 233 202 218 226 222 211 85 302 316 332 344 321 322 313 307 306 296 290 304 316 321 329 344 338 347 344 332 336 340 327
91 154 169 162 162 172 179 178 185 188 192 196 193 188 164 77 78 67 58 353 253 196 180 183 191 181 179 180 191 185 189 196 206 225 205 215 193 189 206 202 205 213 260 287 273 347 25 33 82 35 346 314 335 11 346 299 240 190 182 150 130 112 314 288 348 342 330 318 297 300 289 291 323 315 307 353 10 356 7 351 337 334 334 330 320
115 83 43 161 163 143 127 131 151 176 172 178 165 161 170 144 109 79 56 62 50 34 7 43 167 194 185 180 183 192 133 90 86 355 302 262 199 188 187 191 200 208 238 284 40 48 19 262 256 132 254 294 279 206 240 232 216 189 211 150 167 177 227 25 268 305 292 296 301 303 312 326 312 325 338 353 17 328 320 355 324 322 321 324 321
62 38 30 19 10 16 17 16 10 359 7 55 133 144 140 116 74 80 93 95 88 51 62 41 68 68 62 59 73 57 55 64 40 25 339 274 228 210 186 192 177 166 195 229 97 133 166 179 235 200 207 330 326 335 353 300 276 169 180 156 161 155 182 249 290 265 267 301 297 310 326 316 315 312 317 294 308 339 346 343 336 323 328 319 305
47 52 67 82 121 110 129 156 157 226 326 339 357 5 40 54 74 76 70 83 103 97 78 67 70 93 96 99 104 94 79 50 10 43 22 350 283 193 171 180 170 170 191 127 117 110 102 228 267 300 268 200 289 320 323 322 312 268 182 181 176 176 185 250 266 253 265 272 271 297 295 299 293 297 308 306 320 326 311 317 314 324 333 335 327
52 48 86 213 129 91 350 319 244 275 160 180 175 280 334 31 42 43 38 30 52 78 84 88 96 101 109 113 112 115 111 63 50 29 12 2 15 340 196 176 180 186 159 110 125 137 165 175 214 223 209 279 319 347 321 308 294 301 343 345 302 261 228 206 232 266 238 255 281 272 275 276 285 305 305 319 312 319 304 315 305 314 316 318 304
73 62 14 340 97 162 185 182 169 206 252 204 186 192 170 142 158 129 348 346 58 78 121 113 110 118 119 118 114 100 93 51 89 65 26 346 2 58 65 72 89 83 94 107 124 143 161 179 208 258 281 181 76 350 316 298 288 240 226 245 244 237 231 234 226 224 211 220 234 274 262 265 288 286 286 292 300 305 309 310 301 300 294 293 288
103 115 128 22 65 144 160 171 177 185 173 343 251 203 196 209 192 39 23 349 257 214 169 148 134 130 130 124 119 115 106 7 64 91 61 6 335 328 114 97 93 107 117 124 127 133 124 122 151 232 1 29 15 8 345 325 306 289 291 257 254 263 252 225 223 225 218 212 207 233 258 219 262 265 269 272 303 294 301 292 295 302 296 284 284
70 83 86 71 54 37 37 57 68 64 78 190 34 64 83 85 100 122 118 69 4 324 235 171 143 115 99 117 117 101 78 23 40 73 82 44 330 288 196 98 100 102 104 103 88 96 138 142 143 139 103 55 18 2 346 324 319 298 286 288 284 281 267 245 200 202 208 218 213 223 253 265 258 265 275 284 266 266 259 271 279 273 277 288 297
53 54 59 55 55 56 75 69 64 57 52 60 70 54 48 32 65 33 88 23 319 297 286 236 172 156 150 141 113 86 37 3 29 36 49 62 8 330 95 103 111 115 116 108 100 106 130 142 134 95 87 62 10 355 340 313 302 329 357 345 336 337 330 250 223 220 219 181 256 280 282 288 290 284 281 285 290 283 295 288 298 298 313 313 308
56 52 47 31 27 36 68 87 81 74 68 72 63 58 53 33 51 46 61 23 340 279 266 294 24 150 126 102 105 91 45 1 357 13 31 30 72 66 114 110 120 124 122 116 84 48 36 157 121 103 86 66 6 350 344 345 11 16 353 350 336 337 9 1 18 18 357 317 292 287 284 284 289 289 290 283 267 265 294 329 295 298 334 322 303
55 52 44 32 26 26 40 66 69 60 65 69 74 81 204 262 56 100 103 352 303 310 308 269 156 62 76 84 102 103 74 7 11 7 14 19 69 101 133 132 129 126 128 137 130 75 53 90 94 100 103 83 4 355 351 356 45 11 13 350 335 352 4 350 349 350 339 303 296 309 310 303 299 297 293 293 294 260 176 233 275 31 325 300 299
57 57 50 46 43 35 36 44 49 59 55 44 32 13 278 3 59 76 49 66 23 329 317 209 118 131 135 121 122 111 98 49 24 15 14 18 59 82 97 103 104 103 129 144 132 102 70 68 91 99 111 104 33 15 1 5 41 25 4 350 347 8 23 341 340 337 341 345 336 337 329 320 317 308 302 319 330 5 166 220 6 0 306 307 306
79 76 72 61 57 51 46 47 41 31 29 22 356 337 329 347 74 70 44 19 25 43 65 60 71 89 94 110 92 85 80 50 24 20 22 31 60 79 62 73 74 70 61 90 107 125 113 107 70 77 82 112 155 66 45 13 25 314 357 3 10 288 4 333 319 326 325 318 309 311 304 303 300 322 335 352 11 47 105 174 229 312 349 320 322
72 73 76 74 66 62 49 43 43 47 37 12 335 355 331 57 75 72 62 27 67 77 80 83 82 82 73 27 102 94 83 72 41 9 47 49 47 62 72 67 33 19 18 24 142 128 132 124 116 108 164 230 222 266 261 304 302 302 280 243 243 306 343 319 310 328 311 306 310 310 308 308 324 342 342 358 35 12 13 352 350 356 22 3 354
95 75 78 84 83 67 48 33 34 26 32 44 36 39 30 32 59 80 105 96 90 94 90 90 92 80 84 101 77 93 93 89 76 14 28 57 55 51 61 56 25 258 23 209 102 315 126 127 106 215 295 298 301 287 273 258 249 261 251 245 272 303 301 288 296 298 307 308 307 310 309 312 323 357 341 353 351 350 351 353 356 9 11 27 40
115 96 80 73 80 84 50 25 17 3 16 34 51 51 36 36 22 15 31 55 62 81 101 102 95 95 101 103 85 86 83 90 94 85 46 52 50 52 48 44 21 37 39 51 50 39 52 70 49 42 319 313 302 293 291 288 282 255 259 269 277 291 288 281 276 299 298 296 301 298 294 292 339 342 343 342 328 336 336 335 336 10 23 21 20
129 144 146 146 35 72 81 35 12 10 23 27 35 45 31 36 40 30 25 28 33 56 77 116 122 122 110 90 79 64 57 55 54 46 52 49 45 42 39 38 33 28 54 50 35 26 5 355 323 305 302 289 282 277 275 265 252 265 271 276 284 282 274 270 272 262 270 276 286 277 274 288 6 285 331 297 302 307 312 323 347 13 32 26 21
85 83 105 134 154 206 218 72 54 47 17 34 56 35 32 26 38 20 33 37 41 42 40 50 91 120 116 110 111 133 124 73 43 30 35 38 36 34 36 38 39 24 40 45 27 4 331 315 311 309 298 289 276 266 262 258 251 251 255 256 255 232 234 240 246 247 261 267 263 270 266 266 211 246 251 300 327 346 348 347 358 17 9 37 3
74 65 77 94 180 201 198 229 179 137 109 27 61 65 61 47 52 41 37 37 30 36 49 54 56 53 73 106 102 77 50 46 30 24 29 30 27 21 30 32 32 32 32 32 5 334 328 326 310 303 291 270 273 273 265 257 252 242 233 227 230 230 227 230 248 239 244 249 260 254 268 288 273 292 16 22 16 330 328 352 26 356 353 360 357
97 61 11 327 3 57 97 184 172 126 83 26 21 45 35 40 50 51 46 41 33 35 47 48 41 46 76 93 87 74 55 32 22 19 18 20 22 15 19 16 15 19 17 6 355 354 338 333 317 305 287 283 274 260 264 280 284 270 250 243 231 232 230 223 242 293 293 280 276 282 300 276 315 20 355 359 345 319 334 74 40 350 6 1 5
171 193 207 238 261 231 61 50 59 69 42 48 50 45 44 52 53 52 41 38 55 44 47 53 50 52 47 75 109 106 102 74 46 25 12 19 12 16 19 23 16 7 358 355 345 335 321 311 318 320 321 323 322 324 295 268 259 281 322 309 266 268 291 289 265 239 266 266 302 347 22 7 5 344 352 343 328 314 317 20 36 13 1 9 8
144 175 181 94 345 70 74 67 73 89 76 62 58 42 15 49 94 74 23 355 42 104 95 75 75 79 97 80 98 93 73 78 68 20 11 355 26 10 11 10 4 358 8 350 328 329 336 338 340 339 345 336 346 353 5 22 30 28 27 11 24 46 60 50 40 26 18 26 25 23 2 358 350 350 355 352 342 339 3 18 20 16 343 19 353
68 74 63 53 49 54 58 62 62 88 118 122 101 79 58 47 34 102 82 30 33 34 81 130 151 131 97 46 337 169 135 134 147 165 232 354 341 339 336 5 11 350 346 336 310 314 325 326 319 322 321 340 357 24 32 42 44 36 27 32 47 56 52 48 31 12 15 20 7 11 360 360 4 3 6 3 356 0 4 19 346 351 359 353 347
43 88 77 69 74 93 89 70 69 74 78 111 128 120 105 45 33 47 78 73 66 51 41 39 58 105 119 110 61 67 104 123 138 359 341 305 306 329 353 357 0 7 13 2 3 351 324 328 323 324 329 340 22 30 37 42 35 35 22 31 48 41 34 33 23 24 31 27 25 26 23 25 18 10 9 4 0 346 350 347 348 355 357 352 347
333 118 107 84 51 103 99 65 53 111 85 58 122 141 124 102 86 30 44 83 68 44 35 35 42 69 93 98 99 21 9 318 233 252 272 303 314 333 344 348 339 0 7 89 329 313 322 317 316 319 320 7 28 28 34 36 29 31 29 37 33 28 33 35 23 35 28 25 16 16 11 10 3 354 354 351 350 348 348 345 346 343 340 345 344
40 111 114 110 46 39 125 142 111 90 64 44 16 23 138 148 141 121 27 48 94 93 63 37 34 36 53 63 94 185 208 218 229 254 267 287 329 346 346 328 337 56 82 6 320 307 312 314 308 299 350 34 20 30 31 36 37 38 39 39 29 17 27 25 27 29 22 12 5 2 351 348 346 342 341 341 352 344 342 344 346 1 8 9 1
61 76 86 88 87 50 28 39 52 104 87 76 307 3 346 140 169 159 145 161 118 79 98 103 88 67 20 20 74 40 6 269 292 294 314 333 340 351 355 317 303 303 174 238 329 304 311 313 310 360 30 34 34 34 37 32 36 40 39 34 26 20 20 15 26 18 12 6 5 360 358 355 357 1 357 358 359 4 10 14 20 20 18 13 3
98 78 111 105 102 160 58 72 72 61 59 52 23 6 349 10 76 161 171 172 186 170 181 167 128 260 291 313 323 329 303 310 304 303 310 308 342 346 325 323 332 46 55 140 225 263 292 308 9 38 37 40 30 35 34 34 38 39 31 23 21 20 17 24 28 26 25 23 23 18 12 15 17 22 15 13 11 14 20 23 18 13 8 359 355
142 146 202 160 194 101 108 109 81 81 85 39 10 355 343 335 344 8 14 188 156 145 118 179 161 221 254 316 317 314 301 286 287 286 284 296 338 21 356 334 343 349 68 165 223 253 271 37 49 41 38 39 31 30 26 30 34 35 25 23 21 24 25 30 29 24 23 26 22 12 12 18 12 7 359 10 18 16 18 14 5 359 359 352 349
165 177 191 206 179 120 114 100 88 95 75 251 249 298 290 282 10 23 32 42 67 113 147 138 128 91 12 278 261 256 246 264 282 291 291 287 169 167 267 277 284 29 49 47 47 50 49 43 44 47 39 39 36 33 30 30 26 24 21 20 18 22 22 29 26 24 23 29 28 24 27 26 16 14 14 19 15 11 8 5 2 0 359 355 353
214 183 183 169 131 123 128 155 159 189 201 258 260 248 272 285 258 201 271 305 56 132 145 176 150 136 170 237 243 232 235 210 220 292 314 21 49 322 270 300 7 66 56 43 40 52 54 41 41 43 40 39 41 36 38 35 29 29 24 23 26 26 23 32 31 32 39 38 31 27 26 23 18 15 19 22 18 13 11 8 7 5 2 2 2
102 148 154 143 141 152 183 194 183 191 213 224 236 232 220 122 104 79 57 24 22 25 61 78 94 122 163 188 197 280 30 38 36 31 352 344 338 2 21 34 30 32 45 53 54 53 49 41 32 37 40 42 40 38 36 35 29 29 24 27 25 20 30 40 36 33 37 33 30 25 27 22 18 16 15 15 14 12 7 5 3 2 356 352 349
157 176 166 150 157 166 198 234 202 194 211 207 205 192 181 179 136 97 53 54 46 47 87 104 97 96 97 98 95 85 113 136 136 182 331 343 349 353 35 44 44 46 44 37 38 44 47 46 41 41 40 37 37 35 38 35 30 25 27 30 27 34 48 45 39 35 29 27 28 25 23 19 14 9 9 10 5 2 358 353 350 345 344 338 334
175 188 188 184 173 169 203 227 232 211 224 231 197 160 142 117 103 87 72 14 328 67 93 116 122 134 130 157 192 183 135 123 78 59 34 5 3 12 28 48 58 60 55 53 44 39 40 39 39 39 35 32 30 31 33 36 27 25 27 26 41 53 48 42 37 33 27 26 28 23 17 9 5 4 0 351 353 352 347 342 338 334 330 331 333
188 177 184 203 196 179 197 217 210 215 186 125 92 91 91 93 121 154 166 95 97 100 116 121 131 142 176 95 42 51 52 98 120 60 45 51 50 47 51 52 48 52 50 43 36 35 34 37 36 36 32 33 32 27 28 30 30 28 25 52 60 51 45 38 31 29 30 27 26 20 11 359 358 356 346 344 340 341 333 331 323 320 321 331 336
193 173 178 182 195 211 219 219 210 186 154 153 150 172 113 91 71 62 71 126 114 96 115 134 139 155 195 230 13 26 26 66 75 80 75 55 52 57 57 55 57 60 58 49 39 37 35 32 27 19 22 30 38 34 34 21 18 38 62 71 60 54 44 36 27 28 30 23 16 4 359 350 352 349 341 338 336 328 321 319 314 315 320 324 316
57 27 265 194 193 208 226 234 208 178 162 180 184 171 150 127 110 154 123 93 89 85 69 105 146 159 183 321 1 29 73 72 68 64 61 59 62 63 64 65 69 70 65 57 42 35 31 25 13 6 13 32 29 28 24 28 51 63 62 61 57 51 44 34 27 32 23 11 360 359 343 343 341 334 325 324 317 319 317 318 316 314 316 313 312
172 151 181 234 274 242 226 220 190 171 156 135 105 110 114 108 152 162 96 92 96 84 79 72 82 94 89 74 62 70 73 72 71 64 62 66 62 54 54 59 62 63 58 51 41 36 29 19 12 8 16 25 30 28 34 62 64 61 60 64 63 54 35 24 40 30 10 358 347 337 333 329 323 318 311 309 319 320 316 316 317 319 317 317 317
340 327 236 166 170 256 240 213 161 134 130 145 150 167 175 187 185 160 114 94 82 74 65 63 59 55 55 52 60 67 69 71 63 59 58 59 61 60 58 67 69 65 62 48 40 39 37 34 29 19 22 30 33 35 38 77 77 72 67 72 68 60 19 50 56 28 3 338 326 323 321 325 323 321 324 324 323 319 314 311 311 309 309 310 308
107 28 291 278 224 217 212 202 178 164 154 150 172 152 105 90 87 98 101 103 97 83 80 74 71 61 50 52 63 60 60 63 67 63 56 51 52 59 62 67 71 65 60 44 34 42 43 24 8 2 27 41 39 38 38 82 92 83 76 71 64 51 25 58 67 20 330 324 324 322 319 315 312 311 314 313 308 308 310 309 308 311 311 308 304
154 145 133 317 329 337 334 326 257 182 165 166 129 122 125 126 129 122 118 113 111 110 103 94 80 67 57 56 65 71 66 63 63 60 51 45 41 54 63 71 69 66 54 44 42 54 36 15 356 20 38 43 39 37 49 93 100 94 92 83 73 60 59 73 96 347 314 313 318 312 301 297 295 296 299 301 298 298 301 300 303 301 299 305 310
173 167 146 141 44 310 323 303 248 264 226 146 134 133 134 132 126 129 129 128 127 120 108 96 88 85 81 73 67 66 66 71 67 58 50 38 31 35 61 76 78 66 56 51 44 27 8 355 9 39 44 42 40 37 60 94 111 110 108 107 80 73 49 142 165 324 315 307 297 290 289 285 286 288 291 292 294 292 288 287 288 293 300 306 307
83 68 75 123 127 120 94 58 16 16 26 72 84 68 50 51 59 97 128 129 113 110 111 112 114 127 126 102 76 71 71 69 66 63 49 28 6 358 33 51 54 58 66 60 45 30 22 17 26 28 23 23 21 32 77 87 103 123 120 133 154 150 41 321 313 334 323 300 298 295 289 290 287 287 287 287 285 289 289 293 301 308 310 309 309
135 138 138 121 107 101 98 104 90 46 18 36 61 85 87 82 73 62 47 49 79 109 115 115 111 92 81 84 83 83 85 91 88 78 48 16 4 24 47 54 59 67 62 55 50 36 35 33 31 23 15 9 11 21 84 89 94 119 145 154 165 252 312 338 335 330 340 332 311 300 293 292 294 296 296 303 307 304 309 311 311 310 310 309 309